Find Khors No. 4

NORAD ID: 61754 Int'l Des: 2024-199 Owner: BAUM Country: RU operational
LEOCIRCULARRETROGRADESSO

現在のビュー

3D地球を読み込み中...

About Khors No. 4

Khors No. 4 (NORAD 61754) is a satellite launched Nov 4, 2024 by BAUM of RU. It operates in LEO, CIRCULAR, RETROGRADE, SSO orbit with a mass of 10.00 kg.

次回通過

Passes for default location (London). Set your location on the main map for personalized predictions.

高度履歴

Loading altitude history...

軌道要素

1 61754U 24199V 26195.61490176 .00035529 00000-0 40182-3 0 9997
2 61754 97.2877 73.4279 0006966 149.9416 210.2243 15.62344259141920
Epoch: Jul 14, 2026 • Age: 7 hours

現在のステータス

高度 403.9 km
遠地点 / 近地点 N/A
速度 7.66 km/s
衛星直下点 -47.66°S, 175.41°E
打ち上げ日 Nov 4, 2024
運用期間 1.6 years
タイプ other

技術仕様

分類 Payload
質量 10.00 kg
乾燥質量 10.00 kg
総質量 10.00 kg
長さ 0.30 m
直径 0.20 m
スパン 0.30 m
形状 Box
製造者 BAUM
バスタイプ Cubesat 6U
フェーズステータス In Orbit
所有者/国 BAUM/RU

Most Searched